Location: Jalan Sepang
(2.8072°N, 101.8021°E)
Time: 05:52:18
(UTC+00:00)

Cosmos 1048 Rocket - Pass Details

Date: 15 May 2026
Orbit: 738 x 787 km, 74.0° (Epoch: 7 June)

Event Time Altitude Azimuth Distance (km) Brightness Sun altitude
Exits shadow 21:33:59 49° 254° (WSW) 946 4.0 -21.4°
Maximum altitude 21:34:39 53° 282° (WNW) 903 4.0 -21.3°
Drops below altitude 10° 21:39:34 10° 359° (N) 2,235 6.6 -20.1°
Sets 21:41:57 0° 4° (N) 3,156 7.5 -19.6°
